Location: Piedmont
(45.8748°N, 74.1254°W)
Time: 17:39:01
(UTC+00:00)

X-37B - Pass Details

Date: 08 December 2021
Orbit: 334 x 337 km, 45.0° (Epoch: 11 January)

Event Time Altitude Azimuth Distance (km) Brightness Sun altitude
Rises 22:05:00 0° 217° (SW) 2,094 5.5 -9.0°
Reaches altitude 10° 22:07:22 10° 197° (SSW) 1,261 3.8 -9.4°
Maximum altitude 22:09:24 18° 151° (SSE) 911 2.4 -9.7°
Enters shadow 22:11:20 11° 106° (ESE) 1,237 2.7 -10.0°
